Location: Newark
(49.3808°N, 3.1844°E)
Time: 16:24:49
(UTC+00:00)

SR - All Passes

Search period start: 20 November 2019 00:00
Search period end: 30 November 2019 00:00
Orbit: 573 x 882 km, 66.7° (Epoch: 20 November)

Date Brightness Start Highest point End Pass type
(mag) Time Alt. Az. Time Alt. Az. Time Alt. Az.
20 Nov - 00:09:04 10° NW 00:13:56 27° WSW 00:18:39 10° SSW night (unlit)
20 Nov - 13:02:02 10° SSE 13:05:38 19° ESE 13:09:25 10° ENE daylight
20 Nov - 14:41:33 10° SW 14:46:57 87° WNW 14:52:49 10° NE daylight
20 Nov - 16:25:16 10° W 16:29:55 26° NNW 16:34:48 10° NNE visible
20 Nov - 18:10:59 10° NW 18:14:09 15° N 18:17:21 10° NNE visible
20 Nov - 19:54:40 10° NNW 19:58:40 18° NNE 20:02:40 10° ENE visible
20 Nov - 21:36:39 10° NNW 21:42:20 44° NE 21:47:54 10° ESE visible
20 Nov - 23:18:55 10° NW 23:24:35 46° WSW 23:30:03 10° S night (unlit)
21 Nov - 13:52:08 10° SSW 13:57:21 56° ESE 14:03:00 10° NE daylight
21 Nov - 15:34:41 10° WSW 15:39:47 37° NW 15:45:12 10° NNE daylight
21 Nov - 17:20:04 10° NW 17:23:39 16° NNW 17:27:19 10° NNE visible
21 Nov - 19:04:48 10° NNW 19:08:12 15° N 19:11:38 10° NE visible
21 Nov - 20:47:03 10° NNW 20:52:16 30° NE 20:57:25 10° E visible
21 Nov - 22:29:03 10° NW 22:35:02 79° WSW 22:40:48 10° SSE night (unlit)
22 Nov - 00:12:51 10° WNW 00:16:14 16° WSW 00:19:34 10° SW night (unlit)
22 Nov - 13:03:16 10° S 13:07:58 32° ESE 13:12:58 10° NE daylight
22 Nov - 14:44:26 10° SW 14:49:48 56° NW 14:55:35 10° NNE daylight
22 Nov - 16:29:04 10° WNW 16:33:14 20° NNW 16:37:32 10° NNE visible
22 Nov - 18:14:35 10° NNW 18:17:41 14° N 18:20:49 10° NE visible
22 Nov - 19:57:26 10° NNW 20:02:03 22° NNE 20:06:37 10° ENE visible
22 Nov - 21:39:21 10° NNW 21:45:19 66° NE 21:51:04 10° SE visible
22 Nov - 23:22:06 10° NW 23:27:03 28° WSW 23:31:51 10° SSW night (unlit)
23 Nov - 12:15:16 10° SE 12:18:45 18° ESE 12:22:24 10° ENE daylight
23 Nov - 13:54:35 10° SW 14:00:01 90° S 14:05:54 10° NE daylight
23 Nov - 15:38:13 10° W 15:42:57 27° NNW 15:47:54 10° NNE daylight
23 Nov - 17:23:56 10° NW 17:27:09 15° N 17:30:24 10° NNE visible
23 Nov - 19:07:44 10° NNW 19:11:40 18° NNE 19:15:37 10° ENE visible
23 Nov - 20:49:44 10° NNW 20:55:23 42° NE 21:00:55 10° ESE visible
23 Nov - 22:31:59 10° NW 22:37:41 49° WSW 22:43:10 10° S night (unlit)
24 Nov - 13:05:13 10° SSW 13:10:27 53° ESE 13:16:05 10° NE daylight
24 Nov - 14:47:39 10° WSW 14:52:49 38° NW 14:58:18 10° NNE daylight
24 Nov - 16:33:00 10° NW 16:36:39 17° NNW 16:40:23 10° NNE visible
24 Nov - 18:17:49 10° NNW 18:21:12 15° N 18:24:36 10° NE visible
24 Nov - 20:00:08 10° NNW 20:05:18 29° NE 20:10:24 10° E visible
24 Nov - 21:42:08 10° NW 21:48:07 82° WSW 21:53:53 10° SSE visible
24 Nov - 23:25:47 10° WNW 23:29:22 17° WSW 23:32:51 10° SW night (unlit)
25 Nov - 12:16:25 10° S 12:21:04 30° ESE 12:26:00 10° NE daylight
25 Nov - 13:57:27 10° SW 14:02:52 59° NW 14:08:40 10° NNE daylight
25 Nov - 15:42:01 10° WNW 15:46:15 21° NNW 15:50:38 10° NNE daylight
25 Nov - 17:27:34 10° NNW 17:30:40 14° N 17:33:48 10° NNE visible
25 Nov - 19:10:31 10° NNW 19:15:04 22° NNE 19:19:35 10° ENE visible
25 Nov - 20:52:25 10° NNW 20:58:22 63° NE 21:04:06 10° SE visible
25 Nov - 22:35:07 10° NW 22:40:09 30° WSW 22:45:01 10° S night (unlit)
26 Nov - 11:28:31 10° SE 11:31:52 17° ESE 11:35:22 10° ENE daylight
26 Nov - 13:07:38 10° SSW 13:13:06 86° SE 13:18:58 10° NE daylight
26 Nov - 14:51:11 10° W 14:55:59 28° NNW 15:00:59 10° NNE daylight
26 Nov - 16:36:53 10° NW 16:40:08 15° N 16:43:26 10° NNE visible
26 Nov - 18:20:48 10° NNW 18:24:41 18° NNE 18:28:34 10° ENE visible
26 Nov - 20:02:49 10° NNW 20:08:26 41° NE 20:13:55 10° ESE visible
26 Nov - 21:45:02 10° NW 21:50:47 51° WSW 21:56:17 10° S visible
27 Nov - 12:18:19 10° S 12:23:32 51° ESE 12:29:08 10° NE daylight
27 Nov - 14:00:39 10° WSW 14:05:52 39° NW 14:11:23 10° NNE daylight
27 Nov - 15:45:56 10° WNW 15:49:39 17° NNW 15:53:27 10° NNE daylight
27 Nov - 17:30:52 10° NNW 17:34:12 15° N 17:37:33 10° NE visible
27 Nov - 19:13:13 10° NNW 19:18:20 29° NNE 19:23:21 10° E visible
27 Nov - 20:55:12 10° NW 21:01:12 85° SW 21:06:56 10° SSE visible
27 Nov - 22:38:44 10° WNW 22:42:29 18° WSW 22:46:07 10° SW night (unlit)
28 Nov - 11:29:34 10° SSE 11:34:10 29° ESE 11:39:02 10° NE daylight
28 Nov - 13:10:28 10° SW 13:15:56 61° NW 13:21:46 10° NNE daylight
28 Nov - 14:54:57 10° WNW 14:59:15 21° NNW 15:03:43 10° NNE daylight
28 Nov - 16:40:33 10° NNW 16:43:40 14° N 16:46:48 10° NNE visible
28 Nov - 18:23:35 10° NNW 18:28:04 21° NNE 18:32:31 10° ENE visible
28 Nov - 20:05:31 10° NNW 20:11:26 60° NE 20:17:07 10° SE visible
28 Nov - 21:48:09 10° NW 21:53:16 31° WSW 21:58:11 10° S visible
29 Nov - 10:41:46 10° SE 10:44:59 16° ESE 10:48:19 10° ENE daylight
29 Nov - 12:20:42 10° SSW 12:26:10 83° SE 12:32:03 10° NE daylight
29 Nov - 14:04:08 10° W 14:09:00 29° NNW 14:14:05 10° NNE daylight
29 Nov - 15:49:50 10° NW 15:53:08 15° N 15:56:29 10° NNE daylight
29 Nov - 17:33:51 10° NNW 17:37:41 17° NNE 17:41:31 10° ENE visible
29 Nov - 19:15:54 10° NNW 19:21:29 39° NE 19:26:55 10° ESE visible
29 Nov - 20:58:06 10° NW 21:03:52 54° WSW 21:09:22 10° SSE visible
